Location: Asheville, NC
(35.6000°N, 82.5500°W)
Time: 00:26:01
(UTC-04:00)

AAUSAT CUBESAT 2 - Pass Details

Date: 18 March 2018
Orbit: 576 x 592 km, 97.5° (Epoch: 22 June)

Event Time Altitude Azimuth Distance (km) Brightness Sun altitude
Rises 20:40:27 0° 174° (S) 2,784 ? -13.0°
Reaches altitude 10° 20:42:36 10° 177° (S) 1,891 ? -13.4°
Maximum altitude 20:46:41 66° 260° (W) 642 ? -14.2°
Drops below altitude 10° 20:50:48 10° 342° (NNW) 1,914 ? -15.1°
Sets 20:53:00 0° 345° (NNW) 2,822 ? -15.5°
